Temperature
16 16 16 16 16 16 16 17 16 16 16 16 16 16 16 16 16 15 15 15 15 15 15 15 15 15 15 15 15 15 15 15 15 15 15 15 15 15 15 14 15 14 14
18 17 16 16 16 16 16 16 16 16 16 16 16 16 16 15 15 15 15 15 15 15 15 15 15 15 15 15 15 15 15 15 14 14 14 14 14 14 14 14 14 14 14
17 17 16 16 16 16 16 16 16 16 16 16 16 16 15 15 15 15 15 15 15 15 15 15 15 14 14 15 15 14 14 14 14 14 14 14 14 14 14 14 14 14 14
17 17 16 16 16 16 16 16 16 16 16 15 15 15 15 15 15 15 15 15 15 15 14 14 14 14 14 14 14 14 14 14 14 14 14 14 14 14 14 14 14 14 14
17 16 16 16 16 16 16 16 15 15 15 15 15 15 15 15 15 15 15 15 15 14 14 14 14 14 14 14 14 14 14 14 14 14 14 14 14 14 14 14 14 14 14
16 16 16 16 16 16 16 15 15 15 15 15 15 15 15 15 15 15 14 14 15 14 14 14 14 14 14 14 14 14 14 14 14 14 14 14 13 13 13 13 13 13 13
16 16 15 15 15 15 15 15 15 15 15 15 15 15 15 15 14 14 14 14 14 14 14 14 14 14 13 13 13 13 13 13 13 13 13 13 13 13 13 13 13 13 13
16 16 15 15 15 15 15 15 15 15 15 15 15 14 14 14 14 14 14 14 14 14 14 14 14 13 13 13 13 13 13 13 13 13 13 13 13 13 13 13 13 13 13
15 15 15 15 15 15 15 15 15 15 14 14 14 14 14 14 14 14 14 14 14 14 14 14 13 13 13 13 13 13 13 13 13 13 13 13 13 13 13 13 13 13 13
15 15 14 14 14 14 14 14 14 14 14 14 14 14 14 14 14 14 14 14 14 14 13 13 13 13 13 13 13 13 13 13 13 13 13 13 13 12 12 12 12 12 12
14 14 14 14 14 14 14 14 14 14 14 14 14 14 14 14 13 13 13 13 13 13 13 13 13 13 13 13 13 13 13 13 13 13 13 12 12 12 12 12 12 12 12
13 13 13 13 13 13 13 13 14 14 14 14 13 13 13 13 13 13 13 13 13 13 13 13 13 13 13 12 12 12 12 12 12 12 12 12 12 12 12 12 12 12 12
13 13 13 13 13 13 13 13 13 13 13 13 13 13 13 13 13 13 13 13 13 13 12 12 12 12 12 12 12 12 12 12 12 12 12 12 12 12 12 11 11 11 11
12 13 13 13 13 13 13 13 13 13 13 13 13 13 13 13 13 13 13 12 12 12 12 12 12 12 12 12 12 12 12 12 12 12 12 12 11 11 11 11 11 11 11
12 12 12 12 12 12 12 12 13 13 13 13 13 13 13 13 12 12 12 12 12 12 12 12 12 12 12 12 12 12 12 12 12 12 12 11 11 11 11 11 11 11 11
11 11 11 11 12 12 12 12 12 13 13 13 12 12 12 12 12 12 12 12 12 12 12 12 12 12 12 12 12 11 11 11 11 11 11 11 11 11 11 11 11 11 11
11 11 11 11 11 11 12 12 12 12 12 12 12 12 12 12 12 12 12 12 12 11 11 11 11 11 11 11 11 11 11 11 11 11 11 11 11 11 11 11 11 10 11
10 10 10 11 11 11 11 11 12 12 12 12 12 12 12 12 12 12 12 12 11 11 11 11 11 11 11 11 11 11 11 11 11 11 11 11 11 11 11 11 11 10 10
9 10 10 10 10 10 10 11 11 11 11 11 11 11 11 11 11 11 11 11 11 11 11 11 11 11 11 11 11 11 11 10 10 10 10 10 10 10 10 11 11 10 10
9 9 9 9 10 10 10 10 11 11 11 11 11 11 11 11 11 11 11 11 11 11 11 11 11 11 11 11 10 10 10 10 10 10 10 10 10 10 10 10 10 10 10
8 8 9 9 9 9 9 10 10 10 10 10 10 11 11 11 11 11 11 11 11 11 11 11 10 10 10 10 10 10 10 10 10 10 10 10 10 10 10 10 10 10 10
7 7 8 8 8 9 9 9 9 9 10 10 10 10 10 10 10 11 11 11 11 11 10 10 10 10 10 10 10 10 9 9 9 9 9 9 9 9 9 9 9 9 10
6 6 7 7 8 8 8 8 9 9 9 9 9 10 10 10 10 10 10 10 10 10 10 10 10 10 10 10 10 10 9 9 9 9 9 9 9 9 9 9 9 9 9
5 5 6 6 7 7 8 8 8 8 9 9 9 9 9 9 9 10 10 10 10 10 10 10 10 10 10 10 10 10 10 10 9 9 9 9 9 9 9 9 9 9 9
4 5 5 5 6 6 7 7 7 8 8 8 9 9 9 9 9 9 9 10 10 10 10 10 10 10 10 10 10 9 9 9 9 9 9 9 9 9 9 9 9 8 9
3 4 4 5 5 6 6 6 7 7 7 8 8 8 8 8 9 9 9 9 9 10 10 9 9 9 9 9 9 9 9 9 9 9 9 9 8 8 8 8 8 8 8
Wind_Speed
8 12 19 20 19 18 18 17 17 16 16 17 17 17 17 17 17 17 17 16 16 16 17 17 17 17 18 19 19 19 19 19 19 19 19 19 18 19 19 19 18 17 19
12 16 20 20 20 19 18 18 17 17 16 16 16 16 16 16 16 17 16 15 16 16 17 16 16 17 17 18 18 18 18 18 18 18 17 17 18 18 18 18 17 17 19
15 17 20 20 20 19 18 18 17 17 16 16 16 16 16 16 16 16 16 15 16 16 16 16 16 16 16 16 17 17 17 17 17 17 16 15 16 17 18 18 18 18 18
16 17 18 20 20 19 19 18 17 17 16 16 15 15 15 15 15 15 15 15 16 16 16 16 15 15 15 15 15 16 16 15 15 15 14 13 14 17 17 17 17 17 17
14 16 18 20 19 19 18 18 17 16 16 15 15 15 15 15 15 15 15 16 15 15 16 15 14 14 14 14 15 15 15 15 15 14 14 14 14 16 17 17 17 16 16
13 15 18 20 19 18 18 17 17 16 16 15 15 14 14 15 15 14 15 15 15 15 15 15 14 13 13 13 14 15 15 15 14 14 13 13 13 15 16 16 16 15 15
12 14 18 19 18 18 17 17 17 16 16 15 15 15 14 14 14 14 14 15 14 14 15 14 14 13 12 13 14 15 15 15 14 13 12 12 13 15 15 15 15 15 15
12 13 16 19 18 17 17 17 16 16 16 15 15 15 14 14 14 14 14 14 14 14 14 14 13 12 12 13 13 14 14 14 13 12 12 12 13 14 14 14 14 14 14
11 10 11 15 16 17 16 16 16 16 15 15 15 15 14 14 14 13 14 13 13 13 13 13 12 12 12 12 13 13 14 14 12 11 10 11 12 13 14 14 14 13 14
9 8 8 10 12 14 14 16 16 15 15 15 15 15 15 14 13 13 13 13 13 13 13 12 12 12 12 12 13 14 14 13 12 11 10 10 12 12 13 13 13 13 13
7 6 7 7 9 11 13 14 14 15 15 15 14 15 14 12 12 12 12 13 13 13 12 12 11 11 12 11 12 13 12 11 11 10 9 10 11 11 12 12 12 12 11
7 5 5 6 7 9 9 11 11 12 12 12 12 12 11 11 11 11 12 12 12 12 12 11 10 10 10 10 11 11 11 11 11 9 9 10 10 11 11 11 11 11 11
6 6 5 6 7 7 6 8 8 9 10 11 12 12 11 10 10 9 9 9 10 11 10 9 9 8 8 8 9 10 10 10 10 9 9 9 10 10 10 10 10 10 10
4 4 4 5 6 6 6 6 7 7 8 8 11 12 11 8 7 7 7 7 8 8 8 8 8 7 8 9 10 10 10 10 9 9 8 9 10 9 9 9 9 9 9
4 3 2 3 5 5 5 5 6 6 7 9 10 12 12 8 6 7 7 7 7 8 9 8 7 7 7 8 9 10 9 9 10 9 8 9 9 8 8 8 8 8 8
3 2 2 3 3 4 4 4 5 6 7 8 10 11 12 11 8 7 6 6 7 8 9 9 7 6 6 7 7 8 9 9 9 9 8 8 8 8 7 7 8 7 7
2 2 2 2 2 3 4 5 5 5 7 7 8 11 12 11 10 8 6 6 7 9 9 8 7 6 5 5 5 7 8 8 8 8 8 7 7 7 7 7 7 6 6
3 2 2 1 2 2 2 3 4 5 5 6 7 9 11 12 12 9 6 6 8 9 8 5 5 4 4 4 4 4 5 7 7 7 7 7 7 6 6 5 5 5 5
3 3 3 2 2 1 1 3 3 4 4 5 7 7 9 11 12 10 7 7 9 8 6 5 4 4 5 4 4 3 3 4 5 6 6 6 6 6 5 5 5 4 4
4 3 3 3 3 2 1 1 2 2 2 4 5 6 8 9 12 11 8 8 9 6 4 5 5 4 4 5 5 3 2 2 3 4 5 5 6 6 5 5 4 3 3
5 4 4 4 3 2 1 1 2 3 2 2 2 5 7 8 10 10 7 7 7 5 6 6 4 5 3 4 4 3 2 2 1 2 3 4 4 5 5 5 4 3 2
4 4 3 3 3 2 1 1 2 3 2 2 2 3 5 7 8 9 9 7 7 6 6 6 5 4 3 3 4 4 2 1 1 0 1 2 2 3 3 4 4 4 3
4 3 2 2 3 3 3 2 1 1 1 0 1 2 2 5 6 6 8 8 7 7 7 6 6 6 5 3 3 4 4 4 1 1 1 1 2 1 2 2 3 3 4
4 3 2 2 2 3 3 1 0 1 2 2 3 3 2 3 4 5 7 8 8 6 7 7 6 4 6 5 2 1 2 4 4 2 1 1 2 2 2 2 3 3 4
5 4 4 3 3 3 3 1 0 1 1 1 1 2 3 2 3 4 5 7 8 7 7 6 5 5 5 5 4 2 2 2 2 3 3 2 1 2 2 3 4 4 4
6 5 5 4 4 4 3 2 1 1 1 1 2 2 2 2 2 3 4 5 7 6 7 7 7 7 5 5 4 3 4 3 3 3 3 3 3 2 2 2 4 5 5
Wind_Direction
161 162 154 149 144 138 133 130 127 123 120 118 117 115 113 112 113 113 111 110 108 106 102 100 99 98 96 94 92 90 89 87 85 84 84 84 85 86 84 81 79 79 81
152 157 153 150 144 140 135 132 129 126 123 122 120 118 117 116 117 118 115 114 112 108 105 103 100 99 99 98 97 94 92 90 88 86 84 84 86 87 86 83 82 82 81
146 152 151 150 146 142 138 135 132 130 127 126 124 121 121 121 120 120 119 116 114 110 109 107 104 101 100 101 100 98 95 92 90 86 83 83 87 89 87 84 83 82 81
145 149 150 148 146 143 140 138 137 134 131 129 127 126 125 123 123 122 121 118 115 113 112 110 108 104 102 102 102 100 97 93 90 87 82 83 88 90 87 86 84 82 80
142 146 150 148 146 144 143 141 140 137 135 133 131 130 128 126 124 123 123 120 117 115 114 113 111 107 103 102 101 99 96 93 93 89 86 84 88 91 88 86 85 83 82
139 145 150 148 147 146 145 144 142 140 138 136 134 133 131 129 127 124 124 122 120 119 118 117 113 108 104 102 101 98 97 97 96 92 90 90 92 93 90 88 87 84 83
141 144 150 149 148 147 147 146 144 144 143 140 139 136 133 132 131 128 125 124 124 124 123 121 116 111 105 102 101 99 100 103 98 93 93 95 97 96 93 91 89 87 84
141 143 151 151 149 149 148 147 145 144 144 142 141 139 136 134 135 133 131 130 128 128 126 122 118 113 106 102 102 101 102 106 100 95 93 96 99 99 97 94 92 89 87
132 137 145 151 151 151 150 148 145 145 144 142 141 138 136 135 135 137 138 136 134 130 127 125 120 115 109 103 101 102 104 106 100 97 96 99 103 102 99 97 94 92 91
128 132 136 144 148 148 149 148 147 146 145 143 139 135 134 135 136 137 141 140 137 134 131 128 125 121 115 107 104 106 106 103 96 96 98 104 106 105 101 97 96 95 94
131 136 137 135 136 143 150 152 148 147 146 143 139 136 133 132 134 136 139 139 140 139 136 132 128 124 118 110 107 111 106 104 99 95 101 110 111 108 104 100 98 97 97
144 144 144 143 141 139 150 148 147 146 146 144 142 140 136 134 136 137 140 142 141 139 138 137 132 124 118 109 107 112 108 107 100 97 104 110 112 111 108 106 102 99 100
155 148 149 147 145 142 139 146 147 146 146 145 146 144 140 135 134 134 135 139 141 139 134 133 125 122 120 117 113 114 114 108 103 102 108 114 114 112 112 112 109 105 103
142 144 150 148 144 144 144 148 151 152 152 152 154 150 143 137 136 139 137 141 139 138 133 131 127 125 123 121 121 121 120 116 113 109 110 115 117 115 114 116 116 112 108
123 123 129 147 148 145 144 153 150 154 161 161 158 157 152 146 147 146 145 145 145 144 142 136 131 127 124 122 125 126 126 126 124 117 113 114 115 115 115 116 120 120 115
122 129 138 132 140 146 150 155 156 157 159 162 164 165 160 156 155 154 149 147 151 153 151 145 140 133 126 124 125 130 131 130 128 124 120 119 119 117 115 118 119 118 117
114 118 126 139 115 145 155 158 155 160 160 160 167 171 165 161 160 158 155 153 158 156 149 139 132 126 120 117 121 129 130 129 129 128 125 121 121 119 115 113 114 120 119
56 75 89 117 100 122 157 160 157 159 160 164 167 169 169 165 162 157 155 160 160 154 147 135 133 126 123 125 129 129 127 132 134 132 128 125 123 122 123 121 117 119 124
50 61 57 44 74 94 153 167 158 153 158 163 167 166 169 168 165 160 160 161 157 148 144 145 139 136 135 129 126 122 124 132 140 138 134 136 138 135 134 136 127 120 120
40 44 50 44 39 36 83 136 150 133 148 149 160 170 168 167 166 161 159 159 154 149 150 146 140 131 138 136 117 99 94 120 135 144 148 145 150 150 147 144 141 142 133
29 33 40 32 21 38 55 172 180 184 187 166 159 171 169 167 166 163 161 159 158 164 164 152 137 134 132 130 109 90 44 53 105 140 149 149 157 159 157 158 164 163 165
26 21 25 24 15 10 331 249 224 192 191 187 166 159 164 168 168 169 164 166 163 161 159 157 144 140 146 154 138 131 125 27 339 269 171 169 173 159 161 171 177 180 186
14 6 360 359 357 356 360 13 28 89 114 174 182 184 177 170 168 166 167 165 166 166 172 172 161 152 162 183 169 152 158 193 204 295 237 199 186 177 184 186 191 199 199
354 350 350 353 357 360 8 20 104 197 198 221 214 205 194 171 169 168 171 168 170 172 174 178 171 164 159 172 182 173 156 150 152 173 261 242 213 201 200 201 211 212 208
0 1 356 351 354 360 1 0 346 304 249 222 203 197 192 189 176 170 173 175 175 177 178 177 170 171 168 171 173 161 137 120 128 151 192 221 249 244 223 212 211 221 221
8 10 7 1 356 353 354 353 349 323 325 232 198 203 203 204 203 188 181 180 179 180 182 184 181 180 181 175 178 171 162 164 172 160 173 194 216 253 250 231 216 219 221
Height
1519 1522 1524 1527 1529 1531 1533 1535 1537 1538 1539 1541 1542 1543 1544 1545 1545 1546 1547 1548 1548 1549 1549 1550 1550 1551 1551 1552 1552 1553 1553 1553 1554 1554 1554 1554 1555 1555 1555 1555 1555 1555 1556
1517 1521 1524 1527 1529 1531 1533 1535 1537 1539 1540 1541 1543 1544 1545 1546 1546 1547 1548 1549 1549 1550 1551 1551 1552 1552 1553 1554 1554 1555 1555 1555 1556 1556 1556 1556 1557 1557 1557 1557 1558 1558 1558
1517 1521 1524 1527 1529 1531 1533 1535 1537 1539 1541 1542 1543 1545 1546 1546 1547 1548 1549 1550 1551 1551 1552 1552 1553 1554 1555 1555 1556 1556 1557 1557 1558 1558 1558 1559 1559 1559 1559 1559 1560 1560 1560
1517 1520 1523 1527 1529 1531 1533 1535 1537 1539 1541 1542 1544 1545 1546 1547 1548 1549 1550 1551 1552 1552 1553 1554 1555 1555 1556 1557 1557 1558 1559 1559 1559 1560 1560 1560 1561 1561 1561 1561 1561 1562 1562
1518 1521 1524 1527 1529 1531 1533 1535 1538 1539 1541 1543 1544 1545 1547 1548 1549 1550 1551 1552 1552 1553 1554 1555 1556 1557 1558 1558 1559 1560 1560 1561 1561 1562 1562 1562 1562 1563 1563 1563 1563 1563 1563
1518 1521 1524 1526 1529 1531 1533 1535 1537 1539 1541 1543 1544 1546 1547 1548 1549 1551 1552 1552 1553 1554 1555 1556 1557 1558 1559 1560 1561 1561 1562 1562 1563 1563 1564 1564 1564 1565 1565 1565 1565 1565 1565
1518 1521 1524 1526 1529 1531 1533 1535 1537 1539 1541 1543 1545 1546 1547 1549 1550 1551 1552 1553 1554 1555 1556 1557 1558 1559 1560 1561 1562 1563 1563 1564 1565 1565 1565 1566 1566 1566 1566 1566 1566 1566 1566
1518 1521 1524 1526 1529 1531 1533 1535 1537 1539 1541 1543 1544 1546 1548 1549 1550 1551 1552 1554 1555 1556 1557 1558 1559 1560 1561 1562 1563 1564 1565 1565 1566 1566 1567 1567 1568 1568 1568 1568 1568 1567 1567
1518 1521 1524 1526 1528 1531 1533 1535 1537 1539 1541 1543 1544 1546 1548 1549 1550 1551 1553 1554 1555 1556 1558 1559 1560 1561 1562 1563 1564 1565 1566 1567 1567 1568 1568 1569 1569 1569 1569 1569 1569 1569 1569
1518 1521 1523 1526 1528 1530 1532 1534 1536 1538 1540 1542 1544 1546 1547 1549 1550 1551 1553 1554 1555 1557 1558 1559 1560 1561 1563 1564 1565 1566 1567 1567 1568 1569 1569 1570 1570 1570 1570 1570 1570 1570 1570
1518 1520 1522 1524 1527 1529 1531 1534 1536 1538 1540 1542 1544 1545 1547 1548 1550 1551 1553 1554 1555 1557 1558 1560 1561 1562 1563 1564 1565 1566 1567 1568 1569 1569 1570 1570 1571 1571 1571 1571 1571 1571 1571
1516 1519 1521 1523 1525 1528 1530 1532 1535 1537 1539 1541 1543 1544 1546 1548 1549 1551 1553 1554 1555 1557 1558 1559 1561 1562 1563 1564 1565 1567 1567 1568 1569 1570 1570 1571 1571 1572 1572 1572 1572 1572 1572
1515 1517 1519 1522 1524 1526 1528 1531 1533 1535 1537 1540 1542 1543 1545 1547 1548 1550 1551 1553 1555 1556 1557 1559 1560 1562 1563 1564 1565 1567 1568 1569 1569 1570 1570 1571 1572 1572 1572 1572 1572 1572 1572
1514 1516 1518 1520 1523 1525 1527 1529 1531 1534 1536 1538 1540 1542 1544 1545 1547 1549 1551 1552 1554 1555 1557 1558 1560 1561 1563 1564 1565 1566 1568 1569 1569 1570 1571 1571 1572 1572 1572 1573 1573 1573 1573
1512 1514 1516 1519 1521 1523 1525 1528 1530 1532 1534 1536 1538 1540 1542 1544 1546 1547 1549 1551 1553 1555 1556 1558 1559 1561 1562 1564 1565 1566 1568 1568 1569 1570 1571 1571 1572 1572 1572 1573 1573 1573 1573
1510 1512 1514 1517 1519 1521 1523 1526 1528 1530 1532 1535 1537 1539 1541 1542 1544 1546 1548 1550 1552 1554 1556 1557 1559 1560 1562 1563 1564 1566 1567 1568 1569 1570 1571 1571 1572 1572 1572 1573 1573 1573 1573
1509 1511 1513 1514 1517 1519 1521 1523 1526 1528 1530 1532 1535 1537 1539 1540 1542 1544 1546 1548 1550 1552 1554 1556 1558 1560 1561 1562 1564 1565 1566 1567 1568 1569 1570 1571 1571 1572 1572 1572 1573 1573 1573
1507 1509 1511 1512 1514 1516 1518 1520 1523 1526 1528 1530 1532 1534 1536 1539 1540 1542 1545 1546 1549 1551 1553 1555 1556 1558 1560 1561 1563 1564 1565 1566 1567 1568 1569 1570 1571 1571 1572 1572 1572 1572 1573
1506 1507 1509 1510 1512 1514 1516 1517 1520 1523 1525 1528 1530 1532 1534 1536 1538 1540 1542 1544 1547 1549 1551 1553 1555 1556 1558 1560 1561 1563 1564 1565 1566 1567 1568 1569 1570 1571 1571 1571 1572 1572 1572
1504 1505 1507 1508 1509 1511 1513 1515 1517 1520 1523 1525 1527 1529 1531 1533 1535 1538 1540 1542 1544 1546 1549 1551 1553 1554 1556 1558 1560 1561 1563 1564 1565 1566 1567 1568 1569 1570 1570 1570 1571 1571 1571
1502 1502 1504 1505 1507 1509 1510 1512 1513 1516 1519 1522 1524 1526 1528 1530 1532 1534 1536 1539 1541 1543 1546 1548 1550 1552 1554 1556 1558 1560 1561 1563 1564 1565 1566 1567 1568 1568 1569 1569 1570 1570 1570
1499 1500 1501 1503 1504 1506 1507 1509 1511 1513 1516 1518 1521 1523 1525 1527 1529 1531 1533 1535 1538 1540 1543 1545 1547 1549 1551 1553 1555 1557 1559 1562 1562 1563 1564 1565 1566 1566 1567 1568 1568 1569 1569
1497 1498 1499 1500 1502 1503 1505 1507 1509 1510 1513 1515 1517 1519 1521 1523 1526 1528 1530 1532 1535 1537 1539 1542 1544 1546 1548 1550 1553 1554 1556 1557 1558 1560 1561 1562 1563 1564 1565 1565 1566 1567 1567
1496 1497 1498 1499 1500 1501 1502 1504 1505 1506 1508 1510 1513 1515 1517 1520 1522 1524 1526 1529 1531 1533 1536 1538 1541 1543 1545 1547 1549 1551 1553 1554 1555 1556 1559 1559 1560 1561 1562 1563 1564 1564 1565
1495 1495 1496 1497 1498 1499 1500 1501 1502 1504 1505 1508 1510 1512 1514 1516 1519 1521 1523 1525 1528 1530 1532 1535 1537 1539 1541 1544 1545 1547 1549 1551 1552 1553 1554 1556 1557 1558 1559 1560 1561 1561 1562
1493 1493 1494 1494 1495 1496 1498 1499 1500 1501 1502 1504 1506 1508 1510 1512 1515 1517 1520 1522 1524 1526 1529 1531 1533 1536 1538 1540 1542 1544 1546 1547 1548 1550 1551 1552 1554 1555 1556 1557 1558 1558 1559